Private Wetterstation Wechselburg
Wetterdaten: Freitag, 08.04.2011
Datum Zeit Temp. +2m Bodentemp. Temp.+5cm Temp. Wind Windchill X Diff Temp. Feuchte +2m Feuchte +5cm Sonnenschein Luftdruck Regen Wind Richtung Richtung Sonnenschein UV Taupunkt Windchill Windben
08.04.2011 00:00 10,4 C 14,8 C 9,3 C 9,6 C 7,9 C 0,0 C 59 % 62 % 0 % 1020,8 hPa 0,0 l/m 6,1 km/h (2 Bft) S-SW 202 0 min 0,0 UV-I 2,7 C 7,0 C 8,4 km/h (2 Bft)
08.04.2011 00:08 10,3 C 14,7 C 9,1 C 9,7 C 8,4 C 0,0 C 59 % 62 % 0 % 1020,8 hPa 0,0 l/m 3,5 km/h (1 Bft) N 0 0 min 0,0 UV-I 2,6 C 8,4 C 13,2 km/h (3 Bft)
08.04.2011 00:15 10,2 C 14,7 C 9,1 C 9,4 C 7,8 C 0,0 C 58 % 62 % 0 % 1021,1 hPa 0,0 l/m 4,8 km/h (1 Bft) W-SW 247 0 min 0,0 UV-I 2,3 C 7,3 C 10,0 km/h (2 Bft)
08.04.2011 00:20 10,1 C 14,7 C 8,9 C 9,2 C 7,3 C 0,0 C 58 % 62 % 0 % 1021,1 hPa 0,0 l/m 6,3 km/h (2 Bft) W 270 0 min 0,0 UV-I 2,2 C 6,3 C 7,2 km/h (2 Bft)
08.04.2011 00:25 10,0 C 14,6 C 8,8 C 9,1 C 7,2 C 0,0 C 58 % 62 % 0 % 1021,1 hPa 0,0 l/m 6,8 km/h (2 Bft) SW 225 0 min 0,0 UV-I 2,1 C 6,0 C 18,3 km/h (3 Bft)
08.04.2011 00:30 10,0 C 14,6 C 8,7 C 9,1 C 7,3 C 0,0 C 58 % 63 % 0 % 1021,1 hPa 0,0 l/m 6,3 km/h (2 Bft) SW 225 0 min 0,0 UV-I 2,1 C 6,3 C 6,0 km/h (2 Bft)
08.04.2011 00:35 9,8 C 14,6 C 8,6 C 9,0 C 7,3 C 0,0 C 59 % 63 % 0 % 1021,3 hPa 0,0 l/m 5,5 km/h (1 Bft) S 180 0 min 0,0 UV-I 2,2 C 6,5 C 19,5 km/h (3 Bft)
08.04.2011 00:40 9,9 C 14,6 C 8,7 C 9,1 C 7,6 C 0,0 C 59 % 63 % 0 % 1021,3 hPa 0,0 l/m 4,0 km/h (1 Bft) S-SW 202 0 min 0,0 UV-I 2,3 C 7,6 C 3,7 km/h (1 Bft)
08.04.2011 00:45 9,7 C 14,5 C 8,5 C 9,0 C 7,6 C 0,0 C 60 % 64 % 0 % 1021,3 hPa 0,0 l/m 2,7 km/h (1 Bft) W-SW 247 0 min 0,0 UV-I 2,3 C 7,6 C 5,3 km/h (1 Bft)
08.04.2011 00:50 9,6 C 14,5 C 8,3 C 8,9 C 7,4 C 0,0 C 60 % 65 % 0 % 1021,3 hPa 0,0 l/m 2,3 km/h (1 Bft) SW 225 0 min 0,0 UV-I 2,2 C 7,4 C 1,9 km/h (1 Bft)
08.04.2011 00:55 9,5 C 14,5 C 8,3 C 8,7 C 7,2 C 0,0 C 61 % 66 % 0 % 1021,5 hPa 0,0 l/m 2,1 km/h (1 Bft) W-SW 247 0 min 0,0 UV-I 2,4 C 7,2 C 3,4 km/h (1 Bft)
08.04.2011 01:00 9,5 C 14,5 C 8,1 C 8,7 C 7,1 C 0,0 C 61 % 66 % 0 % 1021,5 hPa 0,0 l/m 2,1 km/h (1 Bft) SW 225 0 min 0,0 UV-I 2,4 C 7,1 C 3,4 km/h (1 Bft)
08.04.2011 01:10 9,3 C 14,4 C 7,9 C 8,4 C 6,7 C 0,0 C 62 % 68 % 0 % 1021,5 hPa 0,0 l/m 1,8 km/h (1 Bft) N 0 0 min 0,0 UV-I 2,4 C 6,7 C 4,7 km/h (1 Bft)
08.04.2011 01:15 9,2 C 14,4 C 7,9 C 8,3 C 6,6 C 0,0 C 63 % 68 % 0 % 1021,9 hPa 0,0 l/m 2,4 km/h (1 Bft) SW 225 0 min 0,0 UV-I 2,5 C 6,6 C 3,5 km/h (1 Bft)
08.04.2011 01:20 9,3 C 14,4 C 7,9 C 8,4 C 6,7 C 0,0 C 63 % 68 % 0 % 1021,9 hPa 0,0 l/m 2,9 km/h (1 Bft) W-SW 247 0 min 0,0 UV-I 2,6 C 6,7 C 5,3 km/h (1 Bft)
08.04.2011 01:25 9,1 C 14,3 C 7,8 C 8,3 C 6,7 C 0,0 C 62 % 68 % 0 % 1021,9 hPa 0,0 l/m 3,1 km/h (1 Bft) W-SW 247 0 min 0,0 UV-I 2,2 C 6,7 C 6,1 km/h (2 Bft)
08.04.2011 01:30 9,1 C 14,3 C 7,9 C 8,3 C 6,7 C 0,0 C 62 % 68 % 0 % 1021,9 hPa 0,0 l/m 3,5 km/h (1 Bft) S 180 0 min 0,0 UV-I 2,2 C 6,7 C 4,8 km/h (1 Bft)
08.04.2011 01:35 9,0 C 14,3 C 7,9 C 8,3 C 6,8 C 0,0 C 62 % 67 % 0 % 1021,6 hPa 0,0 l/m 3,7 km/h (1 Bft) S 180 0 min 0,0 UV-I 2,1 C 6,8 C 6,6 km/h (2 Bft)
08.04.2011 01:40 9,0 C 14,3 C 7,7 C 8,2 C 6,5 C 0,0 C 62 % 67 % 0 % 1021,6 hPa 0,0 l/m 4,2 km/h (1 Bft) W-NW 292 0 min 0,0 UV-I 2,1 C 6,5 C 7,6 km/h (2 Bft)
08.04.2011 01:45 8,9 C 14,2 C 7,7 C 8,0 C 6,2 C 0,0 C 62 % 67 % 0 % 1021,6 hPa 0,0 l/m 5,1 km/h (1 Bft) S-SW 202 0 min 0,0 UV-I 2,0 C 5,4 C 6,4 km/h (2 Bft)
08.04.2011 01:50 8,8 C 14,2 C 7,7 C 7,8 C 5,9 C 0,0 C 61 % 66 % 0 % 1021,6 hPa 0,0 l/m 6,0 km/h (2 Bft) S-SO 157 0 min 0,0 UV-I 1,7 C 4,8 C 5,1 km/h (1 Bft)
08.04.2011 01:55 8,8 C 14,2 C 7,6 C 7,8 C 5,7 C 0,0 C 61 % 65 % 0 % 1021,8 hPa 0,0 l/m 6,8 km/h (2 Bft) SW 225 0 min 0,0 UV-I 1,7 C 4,3 C 20,9 km/h (4 Bft)
08.04.2011 02:00 8,7 C 14,2 C 7,7 C 7,8 C 5,9 C 0,0 C 61 % 65 % 0 % 1021,8 hPa 0,0 l/m 6,0 km/h (2 Bft) W-SW 247 0 min 0,0 UV-I 1,6 C 4,8 C 5,5 km/h (1 Bft)
08.04.2011 02:09 8,7 C 14,1 C 7,5 C 7,8 C 5,9 C 0,0 C 61 % 65 % 0 % 1021,8 hPa 0,0 l/m 5,8 km/h (2 Bft) N 0 0 min 0,0 UV-I 1,6 C 4,8 C 6,9 km/h (2 Bft)
08.04.2011 02:15 8,5 C 14,1 C 7,5 C 7,7 C 6,1 C 0,0 C 62 % 66 % 0 % 1022,0 hPa 0,0 l/m 4,8 km/h (1 Bft) W 270 0 min 0,0 UV-I 1,6 C 5,4 C 10,9 km/h (2 Bft)
08.04.2011 02:20 8,4 C 14,1 C 7,3 C 7,7 C 6,2 C 0,0 C 62 % 67 % 0 % 1022,0 hPa 0,0 l/m 4,3 km/h (1 Bft) SO 135 0 min 0,0 UV-I 1,6 C 6,2 C 2,1 km/h (1 Bft)
08.04.2011 02:25 8,5 C 14,1 C 7,3 C 7,7 C 6,1 C 0,0 C 63 % 68 % 0 % 1022,0 hPa 0,0 l/m 3,9 km/h (1 Bft) W-NW 292 0 min 0,0 UV-I 1,9 C 6,1 C 7,1 km/h (2 Bft)
08.04.2011 02:30 8,4 C 14,0 C 7,2 C 7,7 C 6,2 C 0,0 C 63 % 68 % 0 % 1022,0 hPa 0,0 l/m 3,5 km/h (1 Bft) O-NO 67 0 min 0,0 UV-I 1,8 C 6,2 C 9,5 km/h (2 Bft)
08.04.2011 02:35 8,3 C 14,0 C 7,1 C 7,4 C 5,6 C 0,0 C 64 % 69 % 0 % 1021,9 hPa 0,0 l/m 4,7 km/h (1 Bft) W 270 0 min 0,0 UV-I 1,9 C 4,9 C 7,1 km/h (2 Bft)
08.04.2011 02:40 8,3 C 14,0 C 7,1 C 7,3 C 5,3 C 0,0 C 64 % 69 % 0 % 1021,9 hPa 0,0 l/m 5,3 km/h (1 Bft) W-SW 247 0 min 0,0 UV-I 1,9 C 4,3 C 5,8 km/h (2 Bft)
08.04.2011 02:45 8,1 C 14,0 C 7,1 C 7,2 C 5,5 C 0,0 C 64 % 69 % 0 % 1021,9 hPa 0,0 l/m 4,8 km/h (1 Bft) W-SW 247 0 min 0,0 UV-I 1,7 C 4,7 C 2,9 km/h (1 Bft)
08.04.2011 02:50 8,1 C 13,9 C 7,0 C 7,3 C 5,7 C 0,0 C 64 % 68 % 0 % 1021,9 hPa 0,0 l/m 4,3 km/h (1 Bft) S-SW 202 0 min 0,0 UV-I 1,7 C 5,7 C 4,3 km/h (1 Bft)
08.04.2011 02:55 8,0 C 13,9 C 6,9 C 7,1 C 5,4 C 0,0 C 64 % 69 % 0 % 1021,9 hPa 0,0 l/m 4,7 km/h (1 Bft) W-SW 247 0 min 0,0 UV-I 1,6 C 4,7 C 9,8 km/h (2 Bft)
08.04.2011 03:00 8,1 C 13,9 C 6,9 C 7,2 C 5,3 C 0,0 C 64 % 69 % 0 % 1021,9 hPa 0,0 l/m 5,0 km/h (1 Bft) SW 225 0 min 0,0 UV-I 1,7 C 4,4 C 14,8 km/h (3 Bft)
08.04.2011 03:09 7,9 C 13,9 C 6,8 C 7,0 C 5,3 C 0,0 C 65 % 70 % 0 % 1021,9 hPa 0,0 l/m 4,7 km/h (1 Bft) N 0 0 min 0,0 UV-I 1,7 C 4,5 C 2,6 km/h (1 Bft)
08.04.2011 03:15 7,8 C 13,8 C 6,7 C 7,1 C 5,6 C 0,0 C 65 % 70 % 0 % 1022,0 hPa 0,0 l/m 3,9 km/h (1 Bft) W-SW 247 0 min 0,0 UV-I 1,6 C 5,6 C 5,5 km/h (1 Bft)
08.04.2011 03:20 7,9 C 13,8 C 6,7 C 7,1 C 5,5 C 0,0 C 66 % 70 % 0 % 1022,0 hPa 0,0 l/m 4,0 km/h (1 Bft) W-SW 247 0 min 0,0 UV-I 1,9 C 5,5 C 2,3 km/h (1 Bft)
08.04.2011 03:25 7,9 C 13,8 C 6,7 C 7,1 C 5,4 C 0,0 C 66 % 71 % 0 % 1022,0 hPa 0,0 l/m 3,9 km/h (1 Bft) S 180 0 min 0,0 UV-I 1,9 C 5,4 C 8,0 km/h (2 Bft)
08.04.2011 03:30 7,7 C 13,8 C 6,7 C 7,0 C 5,6 C 0,0 C 66 % 72 % 0 % 1022,0 hPa 0,0 l/m 3,4 km/h (1 Bft) S-SW 202 0 min 0,0 UV-I 1,8 C 5,6 C 4,3 km/h (1 Bft)
08.04.2011 03:35 7,7 C 13,7 C 6,7 C 6,9 C 5,4 C 0,0 C 67 % 72 % 0 % 1022,0 hPa 0,0 l/m 3,7 km/h (1 Bft) W-SW 247 0 min 0,0 UV-I 2,0 C 5,4 C 3,2 km/h (1 Bft)
08.04.2011 03:40 7,6 C 13,7 C 6,7 C 6,7 C 4,8 C 0,0 C 67 % 73 % 0 % 1022,0 hPa 0,0 l/m 5,3 km/h (1 Bft) S 180 0 min 0,0 UV-I 1,9 C 3,7 C 10,8 km/h (2 Bft)
08.04.2011 03:45 7,6 C 13,7 C 6,5 C 6,5 C 4,4 C 0,0 C 68 % 73 % 0 % 1022,0 hPa 0,0 l/m 6,6 km/h (2 Bft) W-SW 247 0 min 0,0 UV-I 2,1 C 2,8 C 5,5 km/h (1 Bft)
08.04.2011 03:50 7,6 C 13,7 C 6,5 C 6,6 C 4,7 C 0,0 C 69 % 74 % 0 % 1022,0 hPa 0,0 l/m 5,8 km/h (2 Bft) SW 225 0 min 0,0 UV-I 2,3 C 3,4 C 8,0 km/h (2 Bft)
08.04.2011 03:55 7,5 C 13,7 C 6,5 C 6,6 C 4,9 C 0,0 C 69 % 75 % 0 % 1022,2 hPa 0,0 l/m 4,5 km/h (1 Bft) S 180 0 min 0,0 UV-I 2,2 C 4,9 C 4,3 km/h (1 Bft)
08.04.2011 04:00 7,5 C 13,6 C 6,4 C 6,6 C 4,8 C 0,0 C 69 % 75 % 0 % 1022,2 hPa 0,0 l/m 5,0 km/h (1 Bft) W-SW 247 0 min 0,0 UV-I 2,2 C 3,9 C 9,3 km/h (2 Bft)
08.04.2011 04:09 7,5 C 13,6 C 6,4 C 6,6 C 4,7 C 0,0 C 70 % 75 % 0 % 1022,2 hPa 0,0 l/m 5,1 km/h (1 Bft) N 0 0 min 0,0 UV-I 2,4 C 3,7 C 4,0 km/h (1 Bft)
08.04.2011 04:15 7,4 C 13,6 C 6,3 C 6,6 C 4,9 C 0,0 C 70 % 75 % 0 % 1022,3 hPa 0,0 l/m 4,7 km/h (1 Bft) W 270 0 min 0,0 UV-I 2,3 C 4,1 C 6,4 km/h (2 Bft)
08.04.2011 04:20 7,3 C 13,6 C 6,3 C 6,4 C 4,7 C 0,0 C 71 % 75 % 0 % 1022,3 hPa 0,0 l/m 5,1 km/h (1 Bft) SW 225 0 min 0,0 UV-I 2,4 C 3,7 C 10,0 km/h (2 Bft)
08.04.2011 04:25 7,3 C 13,5 C 6,2 C 6,4 C 4,6 C 0,0 C 71 % 76 % 0 % 1022,3 hPa 0,0 l/m 5,6 km/h (1 Bft) SW 225 0 min 0,0 UV-I 2,4 C 3,4 C 11,3 km/h (2 Bft)
08.04.2011 04:30 7,3 C 13,5 C 6,3 C 6,3 C 4,4 C 0,0 C 71 % 76 % 0 % 1022,3 hPa 0,0 l/m 6,0 km/h (2 Bft) NO 45 0 min 0,0 UV-I 2,4 C 3,0 C 3,7 km/h (1 Bft)
08.04.2011 04:35 7,2 C 13,5 C 6,1 C 6,2 C 4,2 C 0,0 C 71 % 77 % 0 % 1022,1 hPa 0,0 l/m 6,3 km/h (2 Bft) SW 225 0 min 0,0 UV-I 2,3 C 2,7 C 8,4 km/h (2 Bft)
08.04.2011 04:40 7,2 C 13,5 C 6,1 C 6,2 C 4,2 C 0,0 C 72 % 77 % 0 % 1022,1 hPa 0,0 l/m 6,3 km/h (2 Bft) S-SW 202 0 min 0,0 UV-I 2,5 C 2,7 C 8,9 km/h (2 Bft)
08.04.2011 04:45 7,2 C 13,4 C 6,1 C 6,1 C 4,0 C 0,0 C 72 % 77 % 0 % 1022,1 hPa 0,0 l/m 6,9 km/h (2 Bft) SW 225 0 min 0,0 UV-I 2,5 C 2,3 C 8,0 km/h (2 Bft)
08.04.2011 04:50 7,2 C 13,4 C 6,1 C 6,1 C 3,9 C 0,0 C 72 % 76 % 0 % 1022,1 hPa 0,0 l/m 7,1 km/h (2 Bft) W-SW 247 0 min 0,0 UV-I 2,5 C 2,1 C 7,2 km/h (2 Bft)
08.04.2011 04:55 7,1 C 13,4 C 6,1 C 6,1 C 4,1 C 0,0 C 71 % 76 % 0 % 1022,1 hPa 0,0 l/m 6,1 km/h (2 Bft) W-SW 247 0 min 0,0 UV-I 2,2 C 2,7 C 5,1 km/h (1 Bft)
08.04.2011 05:00 7,1 C 13,4 C 6,1 C 6,1 C 4,1 C 0,0 C 71 % 76 % 0 % 1022,1 hPa 0,0 l/m 6,3 km/h (2 Bft) SW 225 0 min 0,0 UV-I 2,2 C 2,6 C 6,4 km/h (2 Bft)
08.04.2011 05:09 7,1 C 13,3 C 6,0 C 6,2 C 4,3 C 0,0 C 71 % 76 % 0 % 1022,1 hPa 0,0 l/m 5,3 km/h (1 Bft) N 0 0 min 0,0 UV-I 2,2 C 3,2 C 10,5 km/h (2 Bft)
08.04.2011 05:15 7,1 C 13,3 C 6,0 C 6,1 C 4,2 C 0,0 C 71 % 75 % 0 % 1021,6 hPa 0,0 l/m 5,6 km/h (1 Bft) W-SW 247 0 min 0,0 UV-I 2,2 C 2,9 C 5,3 km/h (1 Bft)
08.04.2011 05:20 7,0 C 13,3 C 5,9 C 5,9 C 3,8 C 0,0 C 71 % 75 % 0 % 1021,6 hPa 0,0 l/m 6,6 km/h (2 Bft) S 180 0 min 0,0 UV-I 2,1 C 2,1 C 9,5 km/h (2 Bft)
08.04.2011 05:25 6,9 C 13,3 C 5,9 C 6,0 C 4,1 C 0,0 C 71 % 75 % 0 % 1021,6 hPa 0,0 l/m 5,8 km/h (2 Bft) W-SW 247 0 min 0,0 UV-I 2,0 C 2,8 C 5,8 km/h (2 Bft)
08.04.2011 05:30 7,0 C 13,2 C 5,8 C 6,1 C 4,2 C 0,0 C 71 % 75 % 0 % 1021,6 hPa 0,0 l/m 5,5 km/h (1 Bft) S-SW 202 0 min 0,0 UV-I 2,1 C 3,0 C 8,7 km/h (2 Bft)
08.04.2011 05:35 7,0 C 13,2 C 6,0 C 6,1 C 4,4 C 0,0 C 70 % 75 % 0 % 1022,1 hPa 0,0 l/m 6,0 km/h (2 Bft) SW 225 0 min 0,0 UV-I 1,9 C 3,0 C 9,0 km/h (2 Bft)
08.04.2011 05:40 7,1 C 13,2 C 6,0 C 6,2 C 4,4 C 0,0 C 70 % 74 % 0 % 1022,1 hPa 0,0 l/m 6,4 km/h (2 Bft) W-SW 247 0 min 0,0 UV-I 2,0 C 2,9 C 8,4 km/h (2 Bft)
08.04.2011 05:45 7,1 C 13,2 C 6,1 C 6,3 C 4,6 C 0,0 C 70 % 74 % 0 % 1022,1 hPa 0,0 l/m 6,9 km/h (2 Bft) SW 225 0 min 0,0 UV-I 2,0 C 3,0 C 6,4 km/h (2 Bft)
08.04.2011 05:50 7,1 C 13,2 C 6,1 C 6,3 C 4,8 C 0,0 C 69 % 74 % 0 % 1022,1 hPa 0,0 l/m 6,4 km/h (2 Bft) W-SW 247 0 min 0,0 UV-I 1,8 C 3,4 C 12,1 km/h (2 Bft)
08.04.2011 05:55 7,1 C 13,2 C 6,3 C 6,4 C 4,9 C 0,0 C 69 % 73 % 0 % 1022,1 hPa 0,0 l/m 6,4 km/h (2 Bft) SW 225 0 min 0,0 UV-I 1,8 C 3,5 C 6,0 km/h (2 Bft)
08.04.2011 06:00 7,1 C 13,1 C 6,3 C 6,4 C 4,9 C 0,0 C 69 % 73 % 0 % 1022,1 hPa 0,0 l/m 6,4 km/h (2 Bft) S 180 0 min 0,0 UV-I 1,8 C 3,5 C 9,8 km/h (2 Bft)
08.04.2011 06:10 7,2 C 13,1 C 6,3 C 6,4 C 4,8 C 0,0 C 68 % 72 % 0 % 1022,1 hPa 0,0 l/m 7,6 km/h (2 Bft) N 0 0 min 0,0 UV-I 1,7 C 3,0 C 9,3 km/h (2 Bft)
08.04.2011 06:15 7,2 C 13,1 C 6,4 C 6,5 C 5,0 C 0,0 C 68 % 72 % 0 % 1021,8 hPa 0,0 l/m 6,9 km/h (2 Bft) S-SW 202 0 min 0,0 UV-I 1,7 C 3,4 C 6,4 km/h (2 Bft)
08.04.2011 06:20 7,2 C 13,1 C 6,4 C 6,5 C 5,0 C 0,0 C 68 % 72 % 0 % 1021,8 hPa 0,0 l/m 6,9 km/h (2 Bft) W-SW 247 0 min 0,0 UV-I 1,7 C 3,4 C 6,4 km/h (2 Bft)
08.04.2011 06:25 7,3 C 13,0 C 6,5 C 6,6 C 5,1 C 0,0 C 68 % 72 % 0 % 1021,8 hPa 0,0 l/m 6,8 km/h (2 Bft) S 180 0 min 0,0 UV-I 1,8 C 3,6 C 8,9 km/h (2 Bft)
08.04.2011 06:30 7,4 C 13,0 C 6,4 C 6,6 C 5,0 C 0,0 C 68 % 72 % 0 % 1021,8 hPa 0,0 l/m 7,1 km/h (2 Bft) SW 225 0 min 0,0 UV-I 1,9 C 3,4 C 10,8 km/h (2 Bft)
08.04.2011 06:35 7,3 C 13,0 C 6,4 C 6,5 C 4,9 C 0,0 C 68 % 71 % 0 % 1021,7 hPa 0,0 l/m 7,2 km/h (2 Bft) SW 225 0 min 0,0 UV-I 1,8 C 3,2 C 11,1 km/h (2 Bft)
08.04.2011 06:40 7,3 C 13,0 C 6,5 C 6,5 C 5,0 C 0,0 C 68 % 71 % 0 % 1021,7 hPa 0,0 l/m 7,1 km/h (2 Bft) W-SW 247 0 min 0,0 UV-I 1,8 C 3,4 C 13,2 km/h (3 Bft)
08.04.2011 06:45 7,3 C 13,0 C 6,5 C 6,7 C 4,7 C 0,0 C 67 % 70 % 0 % 1021,7 hPa 0,0 l/m 8,4 km/h (2 Bft) W-SW 247 0 min 0,0 UV-I 1,6 C 2,7 C 9,3 km/h (2 Bft)
08.04.2011 06:50 7,4 C 13,0 C 6,5 C 6,7 C 4,5 C 0,0 C 67 % 70 % 0 % 1021,7 hPa 0,0 l/m 9,2 km/h (2 Bft) SW 225 0 min 0,0 UV-I 1,7 C 2,2 C 9,5 km/h (2 Bft)
08.04.2011 06:55 7,5 C 12,9 C 6,5 C 6,7 C 4,7 C 0,0 C 67 % 70 % 0 % 1021,8 hPa 0,0 l/m 8,4 km/h (2 Bft) W-SW 247 0 min 0,0 UV-I 1,8 C 2,7 C 10,6 km/h (2 Bft)
08.04.2011 07:00 7,5 C 12,9 C 6,5 C 6,8 C 4,8 C 0,0 C 67 % 71 % 0 % 1021,8 hPa 0,0 l/m 7,7 km/h (2 Bft) S-SW 202 0 min 0,0 UV-I 1,8 C 3,0 C 8,5 km/h (2 Bft)
08.04.2011 07:09 7,5 C 12,9 C 6,4 C 6,8 C 4,9 C 0,0 C 66 % 70 % 0 % 1021,8 hPa 0,0 l/m 8,7 km/h (2 Bft) N 0 0 min 0,0 UV-I 1,6 C 2,8 C 9,8 km/h (2 Bft)
08.04.2011 07:15 7,6 C 12,9 C 6,5 C 6,9 C 5,1 C 0,0 C 66 % 70 % 0 % 1021,9 hPa 0,0 l/m 8,5 km/h (2 Bft) SW 225 0 min 0,0 UV-I 1,7 C 3,1 C 8,9 km/h (2 Bft)
08.04.2011 07:20 7,6 C 12,9 C 6,5 C 6,8 C 5,1 C 0,0 C 66 % 70 % 0 % 1021,9 hPa 0,0 l/m 8,5 km/h (2 Bft) W-SW 247 0 min 0,0 UV-I 1,7 C 3,1 C 8,7 km/h (2 Bft)
08.04.2011 07:25 7,6 C 12,8 C 6,7 C 6,8 C 5,1 C 0,0 C 66 % 70 % 0 % 1021,9 hPa 0,0 l/m 8,9 km/h (2 Bft) S-SW 202 0 min 0,0 UV-I 1,7 C 3,0 C 7,9 km/h (2 Bft)
08.04.2011 07:30 7,6 C 12,7 C 6,7 C 7,0 C 5,2 C 0,0 C 66 % 70 % 0 % 1021,9 hPa 0,0 l/m 8,7 km/h (2 Bft) SW 225 0 min 0,0 UV-I 1,7 C 3,2 C 9,3 km/h (2 Bft)
08.04.2011 07:35 7,6 C 12,7 C 6,6 C 7,0 C 5,3 C 0,0 C 66 % 70 % 0 % 1022,1 hPa 0,0 l/m 8,4 km/h (2 Bft) S-SO 157 0 min 0,0 UV-I 1,7 C 3,4 C 13,2 km/h (3 Bft)
08.04.2011 07:40 7,7 C 12,7 C 6,7 C 7,1 C 5,2 C 0,0 C 66 % 70 % 0 % 1022,1 hPa 0,0 l/m 8,5 km/h (2 Bft) W-SW 247 0 min 0,0 UV-I 1,8 C 3,2 C 7,7 km/h (2 Bft)
08.04.2011 07:45 7,7 C 12,7 C 6,8 C 7,1 C 5,3 C 0,0 C 66 % 70 % 0 % 1022,1 hPa 0,0 l/m 9,5 km/h (2 Bft) SW 225 0 min 0,0 UV-I 1,8 C 3,1 C 11,7 km/h (2 Bft)
08.04.2011 07:50 7,9 C 12,7 C 6,8 C 7,3 C 5,5 C 0,0 C 66 % 70 % 0 % 1022,1 hPa 0,0 l/m 9,2 km/h (2 Bft) SW 225 0 min 0,0 UV-I 1,9 C 3,4 C 11,7 km/h (2 Bft)
08.04.2011 07:55 7,9 C 12,7 C 6,9 C 7,3 C 5,3 C 0,0 C 66 % 70 % 0 % 1022,1 hPa 0,0 l/m 10,3 km/h (2 Bft) SW 225 0 min 0,0 UV-I 1,9 C 3,0 C 22,9 km/h (4 Bft)
08.04.2011 08:00 7,9 C 12,7 C 7,0 C 7,0 C 5,3 C 0,0 C 66 % 69 % 0 % 1022,1 hPa 0,0 l/m 11,3 km/h (2 Bft) SW 225 0 min 0,0 UV-I 1,9 C 2,8 C 15,6 km/h (3 Bft)
08.04.2011 08:09 8,0 C 12,6 C 7,1 C 7,4 C 5,6 C 0,0 C 66 % 69 % 0 % 1022,1 hPa 0,0 l/m 9,8 km/h (2 Bft) N 0 0 min 0,0 UV-I 2,0 C 3,4 C 9,7 km/h (2 Bft)
08.04.2011 08:15 8,0 C 12,6 C 7,2 C 7,5 C 6,1 C 0,0 C 65 % 69 % 0 % 1022,1 hPa 0,0 l/m 8,5 km/h (2 Bft) S-SW 202 0 min 0,0 UV-I 1,8 C 4,3 C 9,0 km/h (2 Bft)
08.04.2011 08:20 8,0 C 12,6 C 7,2 C 7,5 C 5,9 C 0,0 C 65 % 68 % 0 % 1022,1 hPa 0,0 l/m 9,2 km/h (2 Bft) W-SW 247 0 min 0,0 UV-I 1,8 C 3,9 C 8,4 km/h (2 Bft)
08.04.2011 08:25 8,1 C 12,6 C 7,2 C 7,6 C 5,8 C 0,0 C 65 % 69 % 0 % 1022,1 hPa 0,0 l/m 10,5 km/h (2 Bft) S 180 0 min 0,1 UV-I 1,9 C 3,5 C 11,7 km/h (2 Bft)
08.04.2011 08:30 8,0 C 12,6 C 7,3 C 7,5 C 5,9 C 0,0 C 65 % 69 % 0 % 1022,1 hPa 0,0 l/m 9,8 km/h (2 Bft) SW 225 0 min 0,1 UV-I 1,8 C 3,8 C 9,5 km/h (2 Bft)
08.04.2011 08:35 8,3 C 12,6 C 7,3 C 7,7 C 6,1 C 0,0 C 66 % 69 % 0 % 1022,1 hPa 0,0 l/m 9,7 km/h (2 Bft) SW 225 0 min 0,1 UV-I 2,3 C 4,0 C 10,8 km/h (2 Bft)
08.04.2011 08:40 8,3 C 12,6 C 7,3 C 7,7 C 6,0 C 0,0 C 66 % 70 % 0 % 1022,1 hPa 0,0 l/m 9,8 km/h (2 Bft) W 270 0 min 0,1 UV-I 2,3 C 3,9 C 9,3 km/h (2 Bft)
08.04.2011 08:45 8,4 C 12,6 C 7,5 C 7,9 C 6,4 C 0,0 C 66 % 70 % 0 % 1022,1 hPa 0,0 l/m 9,2 km/h (2 Bft) SW 225 0 min 0,1 UV-I 2,4 C 4,5 C 10,5 km/h (2 Bft)
08.04.2011 08:50 8,4 C 12,5 C 7,5 C 7,9 C 6,3 C 0,0 C 65 % 69 % 0 % 1022,1 hPa 0,0 l/m 10,3 km/h (2 Bft) W-SW 247 0 min 0,1 UV-I 2,2 C 4,2 C 12,7 km/h (3 Bft)
08.04.2011 08:55 8,4 C 12,5 C 7,5 C 7,9 C 6,2 C 0,0 C 65 % 69 % 0 % 1021,2 hPa 0,0 l/m 12,1 km/h (2 Bft) S-SW 202 0 min 0,2 UV-I 2,2 C 3,7 C 13,0 km/h (3 Bft)
08.04.2011 09:00 8,4 C 12,5 C 7,5 C 7,7 C 6,2 C 0,0 C 64 % 68 % 0 % 1021,2 hPa 0,0 l/m 12,1 km/h (2 Bft) W-SW 247 0 min 0,2 UV-I 2,0 C 3,7 C 12,2 km/h (2 Bft)
08.04.2011 09:09 8,7 C 12,5 C 7,7 C 8,1 C 6,4 C 0,0 C 64 % 68 % 0 % 1021,2 hPa 0,0 l/m 11,7 km/h (2 Bft) N 0 0 min 0,2 UV-I 2,3 C 4,0 C 15,4 km/h (3 Bft)
08.04.2011 09:15 9,2 C 12,5 C 8,0 C 8,7 C 7,4 C 0,0 C 63 % 67 % 0 % 1021,1 hPa 0,0 l/m 12,2 km/h (2 Bft) SW 225 0 min 0,4 UV-I 2,5 C 5,1 C 10,6 km/h (2 Bft)
08.04.2011 09:20 9,3 C 12,5 C 8,2 C 9,0 C 8,1 C 0,0 C 63 % 67 % 0 % 1021,1 hPa 0,0 l/m 11,4 km/h (2 Bft) W 270 0 min 0,4 UV-I 2,6 C 6,1 C 8,7 km/h (2 Bft)
08.04.2011 09:25 9,3 C 12,5 C 8,3 C 9,1 C 8,3 C 0,0 C 62 % 66 % 0 % 1021,1 hPa 0,0 l/m 10,0 km/h (2 Bft) SW 225 0 min 0,3 UV-I 2,4 C 6,6 C 11,3 km/h (2 Bft)
08.04.2011 09:30 9,5 C 12,5 C 8,3 C 9,2 C 8,2 C 0,0 C 62 % 67 % 0 % 1021,1 hPa 0,0 l/m 9,3 km/h (2 Bft) SW 225 0 min 0,3 UV-I 2,6 C 6,6 C 11,6 km/h (2 Bft)
08.04.2011 09:35 9,5 C 12,5 C 8,4 C 9,3 C 8,4 C 0,0 C 61 % 65 % 0 % 1021,5 hPa 0,0 l/m 9,7 km/h (2 Bft) W-SW 247 0 min 0,4 UV-I 2,4 C 6,8 C 11,1 km/h (2 Bft)
08.04.2011 09:40 9,4 C 12,5 C 8,4 C 9,2 C 8,2 C 0,0 C 60 % 65 % 0 % 1021,5 hPa 0,0 l/m 10,1 km/h (2 Bft) W-SW 247 0 min 0,4 UV-I 2,0 C 6,5 C 15,4 km/h (3 Bft)
08.04.2011 09:45 9,5 C 12,5 C 8,4 C 9,2 C 7,9 C 0,0 C 60 % 66 % 0 % 1021,5 hPa 0,0 l/m 10,6 km/h (2 Bft) SW 225 0 min 0,4 UV-I 2,1 C 6,0 C 11,3 km/h (2 Bft)
08.04.2011 09:50 9,4 C 12,5 C 8,5 C 8,9 C 7,9 C 0,0 C 60 % 65 % 0 % 1021,5 hPa 0,0 l/m 10,5 km/h (2 Bft) S-SW 202 0 min 0,4 UV-I 2,0 C 6,0 C 15,8 km/h (3 Bft)
08.04.2011 09:55 9,7 C 12,5 C 8,7 C 9,3 C 8,2 C 0,0 C 60 % 65 % 0 % 1021,4 hPa 0,0 l/m 10,0 km/h (2 Bft) S 180 0 min 0,4 UV-I 2,3 C 6,5 C 9,8 km/h (2 Bft)
08.04.2011 10:00 9,8 C 12,5 C 8,7 C 9,5 C 8,3 C 0,0 C 60 % 65 % 0 % 1021,4 hPa 0,0 l/m 10,3 km/h (2 Bft) NO 45 0 min 0,4 UV-I 2,4 C 6,5 C 12,1 km/h (2 Bft)
08.04.2011 10:09 10,2 C 12,5 C 8,8 C 9,8 C 8,6 C 0,0 C 59 % 64 % 0 % 1021,4 hPa 0,0 l/m 11,9 km/h (2 Bft) N 0 0 min 0,6 UV-I 2,6 C 6,6 C 10,9 km/h (2 Bft)
08.04.2011 10:15 10,0 C 12,3 C 8,9 C 9,7 C 8,7 C 0,0 C 58 % 63 % 0 % 1021,5 hPa 0,0 l/m 11,4 km/h (2 Bft) W-SW 247 0 min 0,5 UV-I 2,1 C 6,8 C 15,8 km/h (3 Bft)
08.04.2011 10:20 9,9 C 12,3 C 8,9 C 9,6 C 8,2 C 0,0 C 58 % 63 % 0 % 1021,5 hPa 0,0 l/m 11,9 km/h (2 Bft) W-SW 247 0 min 0,5 UV-I 2,0 C 6,2 C 14,8 km/h (3 Bft)
08.04.2011 10:25 9,9 C 12,3 C 8,9 C 9,5 C 8,0 C 0,0 C 58 % 63 % 0 % 1021,5 hPa 0,0 l/m 11,9 km/h (2 Bft) W-SW 247 0 min 0,4 UV-I 2,0 C 5,9 C 13,7 km/h (3 Bft)
08.04.2011 10:30 9,9 C 12,3 C 8,8 C 9,4 C 7,8 C 0,0 C 58 % 62 % 0 % 1021,5 hPa 0,0 l/m 12,4 km/h (3 Bft) SW 225 0 min 0,4 UV-I 2,0 C 5,6 C 13,0 km/h (3 Bft)
08.04.2011 10:35 9,8 C 12,3 C 8,8 C 9,3 C 7,5 C 0,0 C 58 % 63 % 0 % 1021,1 hPa 0,0 l/m 13,4 km/h (3 Bft) SW 225 0 min 0,4 UV-I 1,9 C 5,1 C 25,4 km/h (4 Bft)
08.04.2011 10:40 9,8 C 12,3 C 8,8 C 9,3 C 7,6 C 0,0 C 58 % 63 % 0 % 1021,1 hPa 0,0 l/m 12,6 km/h (3 Bft) SW 225 0 min 0,4 UV-I 1,9 C 5,3 C 12,4 km/h (3 Bft)
08.04.2011 10:45 9,7 C 12,4 C 8,7 C 9,2 C 7,7 C 0,0 C 58 % 63 % 0 % 1021,1 hPa 0,0 l/m 12,2 km/h (2 Bft) S-SW 202 0 min 0,4 UV-I 1,8 C 5,5 C 26,2 km/h (4 Bft)
08.04.2011 10:50 9,8 C 12,4 C 8,7 C 9,1 C 7,7 C 0,0 C 58 % 63 % 0 % 1021,1 hPa 0,0 l/m 12,1 km/h (2 Bft) SW 225 0 min 0,4 UV-I 1,9 C 5,5 C 11,9 km/h (2 Bft)
08.04.2011 10:55 9,8 C 12,4 C 8,8 C 9,3 C 7,9 C 0,0 C 58 % 63 % 0 % 1021,6 hPa 0,0 l/m 10,8 km/h (2 Bft) S-SW 202 0 min 0,5 UV-I 1,9 C 6,0 C 18,2 km/h (3 Bft)
08.04.2011 11:00 9,9 C 12,4 C 8,8 C 9,4 C 7,8 C 0,0 C 58 % 62 % 0 % 1021,6 hPa 0,0 l/m 11,4 km/h (2 Bft) W-SW 247 0 min 0,5 UV-I 2,0 C 5,7 C 8,5 km/h (2 Bft)
08.04.2011 11:09 9,8 C 12,3 C 8,8 C 9,4 C 8,4 C 0,0 C 59 % 64 % 0 % 1021,6 hPa 0,0 l/m 8,9 km/h (2 Bft) N 0 0 min 0,4 UV-I 2,2 C 6,9 C 10,3 km/h (2 Bft)
08.04.2011 11:15 9,9 C 12,3 C 8,9 C 9,5 C 8,3 C 0,0 C 59 % 63 % 0 % 1021,6 hPa 0,0 l/m 9,0 km/h (2 Bft) SW 225 0 min 0,4 UV-I 2,3 C 6,8 C 11,3 km/h (2 Bft)
08.04.2011 11:20 9,8 C 12,3 C 8,9 C 9,5 C 8,4 C 0,0 C 59 % 63 % 0 % 1021,6 hPa 0,0 l/m 8,9 km/h (2 Bft) SW 225 0 min 0,4 UV-I 2,2 C 6,9 C 7,1 km/h (2 Bft)
08.04.2011 11:25 9,9 C 12,3 C 8,9 C 9,5 C 8,2 C 0,0 C 59 % 63 % 0 % 1021,6 hPa 0,0 l/m 10,3 km/h (2 Bft) W-SW 247 0 min 0,5 UV-I 2,3 C 6,4 C 12,9 km/h (3 Bft)
08.04.2011 11:30 10,0 C 12,3 C 8,9 C 9,4 C 8,2 C 0,0 C 59 % 63 % 0 % 1021,6 hPa 0,0 l/m 10,5 km/h (2 Bft) SW 225 0 min 0,5 UV-I 2,4 C 6,4 C 12,1 km/h (2 Bft)
08.04.2011 11:35 10,1 C 12,3 C 8,9 C 9,7 C 8,7 C 0,0 C 59 % 63 % 0 % 1021,5 hPa 0,0 l/m 9,8 km/h (2 Bft) S-SW 202 0 min 0,6 UV-I 2,5 C 7,1 C 12,1 km/h (2 Bft)
08.04.2011 11:40 10,0 C 12,3 C 8,9 C 9,7 C 8,5 C 0,0 C 58 % 63 % 0 % 1021,5 hPa 0,0 l/m 10,6 km/h (2 Bft) W-SW 247 0 min 0,6 UV-I 2,1 C 6,7 C 10,3 km/h (2 Bft)
08.04.2011 11:45 10,0 C 12,3 C 8,9 C 9,6 C 8,1 C 0,0 C 58 % 63 % 0 % 1021,5 hPa 0,0 l/m 11,4 km/h (2 Bft) SW 225 0 min 0,4 UV-I 2,1 C 6,1 C 13,0 km/h (3 Bft)
08.04.2011 11:50 10,1 C 12,3 C 8,9 C 9,6 C 8,2 C 0,0 C 58 % 63 % 0 % 1021,5 hPa 0,0 l/m 11,1 km/h (2 Bft) W-SW 247 0 min 0,4 UV-I 2,2 C 6,3 C 11,6 km/h (2 Bft)
08.04.2011 11:55 10,1 C 12,3 C 9,1 C 9,6 C 8,1 C 0,0 C 58 % 63 % 0 % 1021,1 hPa 0,0 l/m 12,2 km/h (2 Bft) W 270 0 min 0,5 UV-I 2,2 C 6,0 C 10,8 km/h (2 Bft)
08.04.2011 12:00 10,1 C 12,3 C 9,3 C 9,7 C 8,4 C 0,0 C 58 % 63 % 0 % 1021,1 hPa 0,0 l/m 11,6 km/h (2 Bft) W-SW 247 0 min 0,5 UV-I 2,2 C 6,4 C 12,6 km/h (3 Bft)
08.04.2011 12:09 10,4 C 12,3 C 9,5 C 10,0 C 8,9 C 0,0 C 59 % 64 % 0 % 1021,1 hPa 0,0 l/m 10,5 km/h (2 Bft) N 0 0 min 0,6 UV-I 2,7 C 7,2 C 18,7 km/h (3 Bft)
08.04.2011 12:15 10,3 C 12,3 C 9,5 C 9,9 C 8,3 C 0,0 C 59 % 63 % 0 % 1020,9 hPa 0,0 l/m 14,3 km/h (3 Bft) SW 225 0 min 0,7 UV-I 2,6 C 5,9 C 29,9 km/h (5 Bft)
08.04.2011 12:20 10,3 C 12,3 C 9,4 C 9,8 C 8,2 C 0,0 C 59 % 64 % 0 % 1020,9 hPa 0,0 l/m 15,3 km/h (3 Bft) S-SW 202 0 min 0,7 UV-I 2,6 C 5,7 C 12,2 km/h (2 Bft)
08.04.2011 12:25 10,3 C 12,3 C 9,5 C 9,8 C 8,3 C 0,0 C 60 % 64 % 0 % 1020,9 hPa 0,0 l/m 13,7 km/h (3 Bft) W 270 0 min 0,6 UV-I 2,9 C 6,0 C 9,7 km/h (2 Bft)
08.04.2011 12:30 10,4 C 12,3 C 9,5 C 9,9 C 8,4 C 0,0 C 60 % 64 % 0 % 1020,9 hPa 0,0 l/m 13,4 km/h (3 Bft) SW 225 0 min 0,6 UV-I 3,0 C 6,2 C 23,5 km/h (4 Bft)
08.04.2011 12:35 10,5 C 12,3 C 9,6 C 10,0 C 8,6 C 0,0 C 60 % 64 % 0 % 1021,2 hPa 0,0 l/m 13,0 km/h (3 Bft) S-SW 202 0 min 0,8 UV-I 3,1 C 6,5 C 20,8 km/h (4 Bft)
08.04.2011 12:40 10,7 C 12,3 C 9,8 C 10,3 C 8,9 C 0,0 C 60 % 65 % 0 % 1021,2 hPa 0,0 l/m 14,0 km/h (3 Bft) S-SW 202 0 min 0,8 UV-I 3,3 C 6,7 C 15,9 km/h (3 Bft)
08.04.2011 12:45 11,1 C 12,3 C 10,1 C 10,7 C 9,3 C 0,0 C 59 % 62 % 0 % 1021,2 hPa 0,0 l/m 15,1 km/h (3 Bft) SW 225 0 min 1,3 UV-I 3,4 C 7,0 C 25,1 km/h (4 Bft)
08.04.2011 12:50 11,2 C 12,3 C 10,3 C 10,8 C 9,5 C 0,0 C 58 % 62 % 0 % 1021,2 hPa 0,0 l/m 16,3 km/h (3 Bft) S-SW 202 0 min 1,3 UV-I 3,2 C 7,1 C 16,3 km/h (3 Bft)
08.04.2011 12:55 11,6 C 12,3 C 10,4 C 11,2 C 9,9 C 0,0 C 58 % 62 % 0 % 1019,9 hPa 0,0 l/m 16,6 km/h (3 Bft) NO 45 0 min 1,5 UV-I 3,6 C 7,6 C 30,7 km/h (5 Bft)
08.04.2011 13:00 11,7 C 12,3 C 10,6 C 11,1 C 9,9 C 0,0 C 58 % 62 % 0 % 1019,9 hPa 0,0 l/m 17,1 km/h (3 Bft) SW 225 0 min 1,5 UV-I 3,7 C 7,5 C 19,6 km/h (3 Bft)
08.04.2011 13:09 11,9 C 12,3 C 10,9 C 11,5 C 10,3 C 0,0 C 57 % 60 % 0 % 1019,9 hPa 0,0 l/m 18,0 km/h (3 Bft) N 0 0 min 1,6 UV-I 3,7 C 10,3 C 18,5 km/h (3 Bft)
08.04.2011 13:15 12,1 C 12,3 C 11,1 C 11,8 C 10,5 C 0,0 C 57 % 60 % 0 % 1019,5 hPa 0,0 l/m 18,5 km/h (3 Bft) W-SW 247 0 min 1,6 UV-I 3,8 C 10,5 C 16,6 km/h (3 Bft)
08.04.2011 13:20 12,2 C 12,3 C 11,2 C 11,9 C 10,6 C 0,0 C 57 % 60 % 0 % 1019,5 hPa 0,0 l/m 19,3 km/h (3 Bft) S-SW 202 0 min 1,6 UV-I 3,9 C 10,6 C 22,7 km/h (4 Bft)
08.04.2011 13:25 12,3 C 12,3 C 11,4 C 12,0 C 10,8 C 0,0 C 57 % 60 % 0 % 1019,5 hPa 0,0 l/m 17,9 km/h (3 Bft) SW 225 0 min 1,5 UV-I 4,0 C 10,8 C 15,0 km/h (3 Bft)
08.04.2011 13:30 12,3 C 12,4 C 11,5 C 12,1 C 11,2 C 0,0 C 58 % 62 % 0 % 1019,5 hPa 0,0 l/m 15,9 km/h (3 Bft) SW 225 0 min 1,5 UV-I 4,3 C 11,2 C 13,5 km/h (3 Bft)
08.04.2011 13:35 12,5 C 12,4 C 11,4 C 12,1 C 11,2 C 0,0 C 58 % 61 % 0 % 1018,8 hPa 0,0 l/m 14,8 km/h (3 Bft) SW 225 0 min 1,2 UV-I 4,5 C 11,2 C 9,0 km/h (2 Bft)
08.04.2011 13:40 12,3 C 12,4 C 11,5 C 12,0 C 10,8 C 0,0 C 58 % 61 % 0 % 1018,8 hPa 0,0 l/m 15,8 km/h (3 Bft) N-NO 22 0 min 1,2 UV-I 4,3 C 10,8 C 18,3 km/h (3 Bft)
08.04.2011 13:45 12,3 C 12,4 C 11,9 C 12,0 C 10,9 C 0,0 C 59 % 63 % 0 % 1018,8 hPa 0,0 l/m 15,6 km/h (3 Bft) S-SO 157 0 min 2,0 UV-I 4,5 C 10,9 C 18,5 km/h (3 Bft)
08.04.2011 13:50 12,4 C 12,4 C 12,5 C 12,4 C 12,3 C 0,0 C 59 % 60 % 0 % 1018,8 hPa 0,0 l/m 15,0 km/h (3 Bft) SW 225 0 min 2,0 UV-I 4,6 C 12,3 C 12,7 km/h (3 Bft)
08.04.2011 13:55 12,5 C 12,3 C 13,3 C 13,3 C 13,3 C 0,8 C 58 % 57 % 21 % 1019,0 hPa 0,0 l/m 14,3 km/h (3 Bft) W-SW 247 0 min 2,6 UV-I 4,5 C 13,3 C 17,1 km/h (3 Bft)
08.04.2011 14:00 12,6 C 12,3 C 13,9 C 14,1 C 14,0 C 1,5 C 58 % 57 % 39 % 1019,0 hPa 0,0 l/m 14,0 km/h (3 Bft) W-SW 247 0 min 2,6 UV-I 4,6 C 14,0 C 12,6 km/h (3 Bft)
08.04.2011 14:09 12,9 C 12,3 C 15,5 C 14,9 C 15,1 C 2,0 C 56 % 52 % 53 % 1019,0 hPa 0,0 l/m 13,5 km/h (3 Bft) N 0 0 min 2,5 UV-I 4,3 C 15,1 C 17,7 km/h (3 Bft)
08.04.2011 14:15 13,1 C 12,3 C 15,9 C 15,1 C 15,1 C 2,0 C 55 % 49 % 53 % 1018,2 hPa 0,0 l/m 16,1 km/h (3 Bft) S 180 0 min 2,5 UV-I 4,3 C 15,1 C 30,4 km/h (5 Bft)
08.04.2011 14:20 13,1 C 12,5 C 16,1 C 15,3 C 15,0 C 2,2 C 55 % 49 % 58 % 1018,2 hPa 0,0 l/m 16,7 km/h (3 Bft) SW 225 0 min 2,5 UV-I 4,3 C 15,0 C 26,9 km/h (4 Bft)
08.04.2011 14:25 13,2 C 12,4 C 17,2 C 15,6 C 15,5 C 2,4 C 56 % 50 % 63 % 1018,2 hPa 0,0 l/m 15,8 km/h (3 Bft) SW 225 0 min 2,4 UV-I 4,6 C 15,5 C 18,3 km/h (3 Bft)
08.04.2011 14:30 13,5 C 12,4 C 17,5 C 15,8 C 15,6 C 2,3 C 55 % 47 % 61 % 1018,2 hPa 0,0 l/m 15,4 km/h (3 Bft) S-SW 202 0 min 2,4 UV-I 4,6 C 15,6 C 18,7 km/h (3 Bft)
08.04.2011 14:35 13,6 C 12,4 C 17,6 C 15,8 C 15,5 C 2,2 C 55 % 46 % 58 % 1017,6 hPa 0,0 l/m 17,1 km/h (3 Bft) SW 225 0 min 2,3 UV-I 4,7 C 15,5 C 19,5 km/h (3 Bft)
08.04.2011 14:40 13,9 C 12,4 C 18,1 C 16,0 C 15,9 C 2,1 C 55 % 46 % 55 % 1017,6 hPa 0,0 l/m 16,1 km/h (3 Bft) S 180 0 min 2,3 UV-I 5,0 C 15,9 C 13,8 km/h (3 Bft)
08.04.2011 14:45 14,1 C 12,5 C 18,3 C 16,2 C 16,1 C 2,1 C 55 % 45 % 55 % 1017,6 hPa 0,0 l/m 16,6 km/h (3 Bft) SW 225 0 min 2,3 UV-I 5,2 C 16,1 C 16,7 km/h (3 Bft)
08.04.2011 14:50 14,2 C 12,5 C 18,5 C 16,3 C 16,0 C 2,1 C 54 % 44 % 55 % 1017,6 hPa 0,0 l/m 18,5 km/h (3 Bft) SW 225 0 min 2,3 UV-I 5,0 C 16,0 C 29,6 km/h (5 Bft)
08.04.2011 14:55 14,7 C 12,5 C 18,8 C 16,5 C 16,3 C 1,8 C 53 % 43 % 47 % 1017,2 hPa 0,0 l/m 20,0 km/h (4 Bft) S-SW 202 0 min 2,2 UV-I 5,2 C 16,3 C 25,1 km/h (4 Bft)
08.04.2011 15:00 14,9 C 12,5 C 19,1 C 17,0 C 17,1 C 2,1 C 52 % 43 % 55 % 1017,2 hPa 0,0 l/m 18,5 km/h (3 Bft) W-SW 247 0 min 2,2 UV-I 5,1 C 17,1 C 13,8 km/h (3 Bft)
08.04.2011 15:09 15,3 C 12,5 C 18,3 C 18,0 C 18,3 C 2,7 C 48 % 40 % 71 % 1017,2 hPa 0,0 l/m 16,9 km/h (3 Bft) N 0 0 min 2,2 UV-I 4,4 C 18,3 C 37,8 km/h (5 Bft)
08.04.2011 15:15 15,3 C 12,6 C 17,8 C 17,5 C 16,8 C 2,2 C 47 % 41 % 58 % 1017,0 hPa 0,0 l/m 20,4 km/h (4 Bft) S 180 0 min 1,8 UV-I 4,1 C 16,8 C 30,4 km/h (5 Bft)
08.04.2011 15:20 15,1 C 12,6 C 17,1 C 16,8 C 16,5 C 1,7 C 48 % 44 % 45 % 1017,0 hPa 0,0 l/m 19,8 km/h (3 Bft) S 180 0 min 1,8 UV-I 4,2 C 16,5 C 14,3 km/h (3 Bft)
08.04.2011 15:25 15,0 C 12,6 C 16,6 C 16,3 C 15,9 C 1,3 C 48 % 44 % 34 % 1017,0 hPa 0,0 l/m 16,3 km/h (3 Bft) SW 225 0 min 1,2 UV-I 4,1 C 15,9 C 18,5 km/h (3 Bft)
08.04.2011 15:30 15,0 C 12,6 C 16,7 C 16,0 C 15,8 C 1,0 C 48 % 45 % 26 % 1017,0 hPa 0,0 l/m 14,5 km/h (3 Bft) SW 225 0 min 1,2 UV-I 4,1 C 15,8 C 13,2 km/h (3 Bft)
08.04.2011 15:35 15,5 C 12,7 C 17,8 C 16,6 C 16,6 C 1,1 C 47 % 41 % 29 % 1016,5 hPa 0,0 l/m 18,8 km/h (3 Bft) S-SW 202 0 min 1,5 UV-I 4,2 C 16,6 C 35,1 km/h (5 Bft)
08.04.2011 15:40 15,5 C 12,7 C 18,0 C 17,0 C 16,9 C 1,5 C 47 % 42 % 39 % 1016,5 hPa 0,0 l/m 18,7 km/h (3 Bft) S 180 0 min 1,5 UV-I 4,2 C 16,9 C 17,2 km/h (3 Bft)
08.04.2011 15:45 15,8 C 12,8 C 18,8 C 18,0 C 18,4 C 2,2 C 47 % 41 % 58 % 1016,5 hPa 0,0 l/m 16,4 km/h (3 Bft) SW 225 0 min 1,4 UV-I 4,5 C 18,4 C 12,2 km/h (2 Bft)
08.04.2011 15:50 15,6 C 12,8 C 17,9 C 17,9 C 17,5 C 2,3 C 47 % 41 % 61 % 1016,5 hPa 0,0 l/m 16,6 km/h (3 Bft) SW 225 0 min 1,4 UV-I 4,3 C 17,5 C 18,5 km/h (3 Bft)
08.04.2011 15:55 15,7 C 12,8 C 18,4 C 17,7 C 17,7 C 2,0 C 47 % 41 % 53 % 1016,4 hPa 0,0 l/m 16,7 km/h (3 Bft) S 180 0 min 1,3 UV-I 4,4 C 17,7 C 18,2 km/h (3 Bft)
08.04.2011 16:00 15,6 C 12,8 C 18,5 C 17,9 C 17,9 C 2,3 C 47 % 43 % 61 % 1016,4 hPa 0,0 l/m 16,1 km/h (3 Bft) SW 225 0 min 1,3 UV-I 4,3 C 17,9 C 21,1 km/h (4 Bft)
08.04.2011 16:10 15,6 C 12,9 C 18,5 C 17,9 C 17,9 C 2,3 C 47 % 43 % 61 % 1016,4 hPa 0,0 l/m 17,1 km/h (3 Bft) N 0 0 min 1,2 UV-I 4,3 C 17,9 C 19,6 km/h (3 Bft)
08.04.2011 16:15 15,9 C 12,9 C 18,5 C 18,0 C 17,8 C 2,1 C 48 % 43 % 55 % 1016,1 hPa 0,0 l/m 18,0 km/h (3 Bft) S-SW 202 0 min 1,1 UV-I 4,9 C 17,8 C 21,7 km/h (4 Bft)
08.04.2011 16:20 15,9 C 12,9 C 18,5 C 18,0 C 17,9 C 2,1 C 47 % 43 % 55 % 1016,1 hPa 0,0 l/m 17,2 km/h (3 Bft) S-SW 202 0 min 1,1 UV-I 4,6 C 17,9 C 21,6 km/h (4 Bft)
08.04.2011 16:25 15,9 C 12,9 C 18,5 C 18,0 C 17,8 C 2,1 C 47 % 43 % 55 % 1016,1 hPa 0,0 l/m 18,2 km/h (3 Bft) W-SW 247 0 min 0,9 UV-I 4,6 C 17,8 C 18,3 km/h (3 Bft)
08.04.2011 16:30 16,1 C 12,9 C 18,5 C 18,0 C 17,9 C 1,9 C 48 % 43 % 50 % 1016,1 hPa 0,0 l/m 18,2 km/h (3 Bft) SW 225 0 min 0,9 UV-I 5,1 C 17,9 C 17,2 km/h (3 Bft)
08.04.2011 16:35 16,0 C 13,0 C 18,0 C 17,9 C 17,9 C 1,9 C 46 % 42 % 50 % 1015,8 hPa 0,0 l/m 17,4 km/h (3 Bft) S-SW 202 0 min 0,8 UV-I 4,4 C 17,9 C 18,0 km/h (3 Bft)
08.04.2011 16:40 16,1 C 13,0 C 17,9 C 18,1 C 18,0 C 2,0 C 47 % 45 % 53 % 1015,8 hPa 0,0 l/m 16,6 km/h (3 Bft) S-SW 202 0 min 0,8 UV-I 4,8 C 18,0 C 19,0 km/h (3 Bft)
08.04.2011 16:45 16,1 C 13,0 C 17,6 C 18,2 C 18,1 C 2,1 C 47 % 43 % 55 % 1015,8 hPa 0,0 l/m 16,7 km/h (3 Bft) S 180 0 min 0,7 UV-I 4,8 C 18,1 C 19,0 km/h (3 Bft)
08.04.2011 16:50 16,2 C 13,0 C 17,9 C 18,1 C 18,1 C 1,9 C 48 % 45 % 50 % 1015,8 hPa 0,0 l/m 16,7 km/h (3 Bft) SO 135 0 min 0,7 UV-I 5,2 C 18,1 C 28,0 km/h (4 Bft)
08.04.2011 16:55 16,3 C 13,0 C 17,8 C 18,4 C 18,5 C 2,1 C 48 % 44 % 55 % 1015,4 hPa 0,0 l/m 15,1 km/h (3 Bft) S-SW 202 0 min 0,6 UV-I 5,3 C 18,5 C 21,4 km/h (4 Bft)
08.04.2011 17:00 16,3 C 13,1 C 17,7 C 18,3 C 18,0 C 2,0 C 47 % 44 % 53 % 1015,4 hPa 0,0 l/m 18,7 km/h (3 Bft) W-SW 247 0 min 0,6 UV-I 5,0 C 18,0 C 26,4 km/h (4 Bft)
08.04.2011 17:09 16,5 C 13,1 C 17,6 C 18,0 C 18,0 C 1,5 C 48 % 47 % 39 % 1015,4 hPa 0,0 l/m 18,7 km/h (3 Bft) N 0 0 min 0,5 UV-I 5,5 C 18,0 C 19,2 km/h (3 Bft)
08.04.2011 17:15 16,4 C 13,1 C 17,3 C 17,9 C 17,6 C 1,5 C 48 % 47 % 39 % 1015,2 hPa 0,0 l/m 18,5 km/h (3 Bft) SW 225 0 min 0,5 UV-I 5,4 C 17,6 C 21,2 km/h (4 Bft)
08.04.2011 17:20 16,3 C 13,1 C 17,1 C 17,3 C 16,9 C 1,0 C 49 % 47 % 26 % 1015,2 hPa 0,0 l/m 18,8 km/h (3 Bft) N-NW 337 0 min 0,5 UV-I 5,6 C 16,9 C 20,4 km/h (4 Bft)
08.04.2011 17:25 16,5 C 13,1 C 17,5 C 17,3 C 17,2 C 0,8 C 50 % 48 % 21 % 1015,2 hPa 0,0 l/m 19,6 km/h (3 Bft) SW 225 0 min 0,3 UV-I 6,0 C 17,2 C 29,8 km/h (5 Bft)
08.04.2011 17:30 16,7 C 13,2 C 17,3 C 17,5 C 17,4 C 0,8 C 49 % 48 % 21 % 1015,2 hPa 0,0 l/m 20,4 km/h (4 Bft) S-SW 202 0 min 0,3 UV-I 5,9 C 17,4 C 28,8 km/h (4 Bft)
08.04.2011 17:35 16,7 C 13,2 C 17,3 C 17,7 C 17,5 C 1,0 C 50 % 48 % 26 % 1015,1 hPa 0,0 l/m 22,2 km/h (4 Bft) W-SW 247 0 min 0,3 UV-I 6,2 C 17,5 C 24,9 km/h (4 Bft)
08.04.2011 17:40 16,7 C 13,2 C 17,3 C 17,7 C 17,4 C 1,0 C 50 % 49 % 26 % 1015,1 hPa 0,0 l/m 22,9 km/h (4 Bft) SW 225 0 min 0,3 UV-I 6,2 C 17,4 C 26,2 km/h (4 Bft)
08.04.2011 17:45 16,7 C 13,2 C 17,2 C 17,7 C 17,5 C 1,0 C 50 % 49 % 26 % 1015,1 hPa 0,0 l/m 22,2 km/h (4 Bft) S 180 0 min 0,2 UV-I 6,2 C 17,5 C 39,6 km/h (6 Bft)
08.04.2011 17:50 16,8 C 13,2 C 17,3 C 17,8 C 17,8 C 1,0 C 51 % 49 % 26 % 1015,1 hPa 0,0 l/m 19,3 km/h (3 Bft) S 180 0 min 0,2 UV-I 6,6 C 17,8 C 16,9 km/h (3 Bft)
08.04.2011 17:55 16,8 C 13,2 C 17,3 C 18,0 C 17,9 C 1,2 C 51 % 50 % 32 % 1014,8 hPa 0,0 l/m 18,2 km/h (3 Bft) S-SW 202 0 min 0,2 UV-I 6,6 C 17,9 C 42,2 km/h (6 Bft)
08.04.2011 18:00 16,8 C 13,3 C 17,3 C 17,9 C 17,9 C 1,1 C 51 % 50 % 29 % 1014,8 hPa 0,0 l/m 18,2 km/h (3 Bft) W-SW 247 0 min 0,2 UV-I 6,6 C 17,9 C 24,6 km/h (4 Bft)
08.04.2011 18:10 16,7 C 13,3 C 17,1 C 17,9 C 17,7 C 1,2 C 51 % 51 % 32 % 1014,8 hPa 0,0 l/m 19,0 km/h (3 Bft) N 0 0 min 0,1 UV-I 6,5 C 17,7 C 18,5 km/h (3 Bft)
08.04.2011 18:15 16,7 C 13,3 C 17,0 C 17,9 C 17,9 C 1,2 C 52 % 52 % 32 % 1014,1 hPa 0,0 l/m 16,9 km/h (3 Bft) S-SW 202 0 min 0,1 UV-I 6,8 C 17,9 C 27,2 km/h (4 Bft)
08.04.2011 18:20 16,8 C 13,3 C 17,0 C 17,9 C 17,8 C 1,1 C 53 % 52 % 29 % 1014,1 hPa 0,0 l/m 17,1 km/h (3 Bft) SW 225 0 min 0,1 UV-I 7,2 C 17,8 C 23,5 km/h (4 Bft)
08.04.2011 18:25 16,7 C 13,3 C 16,8 C 17,8 C 17,6 C 1,1 C 53 % 53 % 29 % 1014,1 hPa 0,0 l/m 17,9 km/h (3 Bft) N-NW 337 0 min 0,1 UV-I 7,1 C 17,6 C 19,6 km/h (3 Bft)
08.04.2011 18:30 16,7 C 13,3 C 16,7 C 17,6 C 17,4 C 0,9 C 53 % 53 % 24 % 1014,1 hPa 0,0 l/m 17,9 km/h (3 Bft) SW 225 0 min 0,1 UV-I 7,1 C 17,4 C 24,8 km/h (4 Bft)
08.04.2011 18:35 16,7 C 13,3 C 16,5 C 17,5 C 17,3 C 0,8 C 52 % 53 % 21 % 1014,2 hPa 0,0 l/m 17,9 km/h (3 Bft) W-SW 247 0 min 0,0 UV-I 6,8 C 17,3 C 24,1 km/h (4 Bft)
08.04.2011 18:40 16,6 C 13,3 C 16,5 C 17,3 C 17,0 C 0,7 C 53 % 53 % 18 % 1014,2 hPa 0,0 l/m 19,5 km/h (3 Bft) W-SW 247 0 min 0,0 UV-I 7,0 C 17,0 C 24,5 km/h (4 Bft)
08.04.2011 18:45 16,5 C 13,4 C 16,3 C 17,0 C 16,6 C 0,5 C 53 % 54 % 13 % 1014,2 hPa 0,0 l/m 21,1 km/h (4 Bft) S-SW 202 0 min 0,0 UV-I 6,9 C 16,6 C 33,5 km/h (5 Bft)
08.04.2011 18:50 16,4 C 13,4 C 16,1 C 16,8 C 16,5 C 0,4 C 53 % 54 % 11 % 1014,2 hPa 0,0 l/m 19,8 km/h (3 Bft) SW 225 0 min 0,0 UV-I 6,8 C 16,5 C 21,4 km/h (4 Bft)
08.04.2011 18:55 16,4 C 13,4 C 16,1 C 16,7 C 16,4 C 0,3 C 53 % 54 % 8 % 1014,0 hPa 0,0 l/m 19,3 km/h (3 Bft) S 180 0 min 0,0 UV-I 6,8 C 16,4 C 23,3 km/h (4 Bft)
08.04.2011 19:00 16,3 C 13,4 C 16,0 C 16,6 C 16,3 C 0,3 C 53 % 54 % 8 % 1014,0 hPa 0,0 l/m 17,9 km/h (3 Bft) S-SW 202 0 min 0,0 UV-I 6,7 C 16,3 C 15,3 km/h (3 Bft)
08.04.2011 19:10 16,3 C 13,4 C 15,9 C 16,5 C 16,4 C 0,2 C 54 % 55 % 5 % 1014,0 hPa 0,0 l/m 13,5 km/h (3 Bft) N 0 0 min 0,0 UV-I 7,0 C 16,4 C 17,2 km/h (3 Bft)
08.04.2011 19:15 16,1 C 13,4 C 15,9 C 16,4 C 16,2 C 0,3 C 54 % 55 % 8 % 1014,6 hPa 0,0 l/m 11,6 km/h (2 Bft) N 360 0 min 0,0 UV-I 6,8 C 16,2 C 10,1 km/h (2 Bft)
08.04.2011 19:20 16,0 C 13,4 C 15,7 C 16,2 C 16,0 C 0,2 C 55 % 55 % 5 % 1014,6 hPa 0,0 l/m 10,9 km/h (2 Bft) SW 225 0 min 0,0 UV-I 7,0 C 16,0 C 16,3 km/h (3 Bft)
08.04.2011 19:25 15,9 C 13,4 C 15,6 C 16,0 C 15,9 C 0,1 C 55 % 57 % 3 % 1014,6 hPa 0,0 l/m 10,1 km/h (2 Bft) SW 225 0 min 0,0 UV-I 6,9 C 15,9 C 12,9 km/h (3 Bft)
08.04.2011 19:30 15,7 C 13,4 C 15,5 C 15,7 C 15,4 C 0,0 C 55 % 56 % 0 % 1014,6 hPa 0,0 l/m 12,4 km/h (3 Bft) SW 225 0 min 0,0 UV-I 6,7 C 15,4 C 15,3 km/h (3 Bft)
08.04.2011 19:35 15,6 C 13,4 C 15,3 C 15,5 C 14,9 C 0,0 C 56 % 57 % 0 % 1014,6 hPa 0,0 l/m 14,2 km/h (3 Bft) SW 225 0 min 0,0 UV-I 6,9 C 14,9 C 12,6 km/h (3 Bft)
08.04.2011 19:40 15,5 C 13,4 C 15,2 C 15,3 C 14,6 C 0,0 C 56 % 57 % 0 % 1014,6 hPa 0,0 l/m 14,3 km/h (3 Bft) SW 225 0 min 0,0 UV-I 6,8 C 14,6 C 20,0 km/h (4 Bft)
08.04.2011 19:45 15,4 C 13,4 C 15,0 C 15,1 C 14,6 C 0,0 C 56 % 58 % 0 % 1014,6 hPa 0,0 l/m 12,6 km/h (3 Bft) S-SW 202 0 min 0,0 UV-I 6,7 C 14,6 C 22,0 km/h (4 Bft)
08.04.2011 19:50 15,3 C 13,4 C 15,0 C 15,1 C 14,5 C 0,0 C 57 % 58 % 0 % 1014,6 hPa 0,0 l/m 11,7 km/h (2 Bft) SW 225 0 min 0,0 UV-I 6,8 C 14,5 C 11,4 km/h (2 Bft)
08.04.2011 19:55 15,2 C 13,5 C 14,8 C 15,0 C 14,4 C 0,0 C 57 % 58 % 0 % 1014,9 hPa 0,0 l/m 10,9 km/h (2 Bft) SW 225 0 min 0,0 UV-I 6,7 C 14,4 C 16,7 km/h (3 Bft)
08.04.2011 20:00 15,3 C 13,5 C 14,8 C 15,1 C 14,6 C 0,0 C 58 % 59 % 0 % 1014,9 hPa 0,0 l/m 10,3 km/h (2 Bft) S 180 0 min 0,0 UV-I 7,1 C 14,6 C 11,3 km/h (2 Bft)
08.04.2011 20:10 15,1 C 13,5 C 14,7 C 14,9 C 14,4 C 0,0 C 58 % 60 % 0 % 1014,9 hPa 0,0 l/m 9,5 km/h (2 Bft) N 0 0 min 0,0 UV-I 6,9 C 14,4 C 16,3 km/h (3 Bft)
08.04.2011 20:15 14,9 C 13,5 C 14,5 C 14,7 C 14,2 C 0,0 C 59 % 60 % 0 % 1015,1 hPa 0,0 l/m 10,1 km/h (2 Bft) W-SW 247 0 min 0,0 UV-I 7,0 C 14,2 C 21,6 km/h (4 Bft)
08.04.2011 20:20 14,9 C 13,5 C 14,4 C 14,7 C 14,2 C 0,0 C 59 % 60 % 0 % 1015,1 hPa 0,0 l/m 10,5 km/h (2 Bft) W-SW 247 0 min 0,0 UV-I 7,0 C 14,2 C 15,4 km/h (3 Bft)
08.04.2011 20:25 14,8 C 13,5 C 14,5 C 14,7 C 14,3 C 0,0 C 58 % 60 % 0 % 1015,1 hPa 0,0 l/m 9,7 km/h (2 Bft) S 180 0 min 0,0 UV-I 6,6 C 14,3 C 4,3 km/h (1 Bft)
08.04.2011 20:30 14,8 C 13,5 C 14,4 C 14,6 C 14,3 C 0,0 C 58 % 60 % 0 % 1015,1 hPa 0,0 l/m 10,0 km/h (2 Bft) SW 225 0 min 0,0 UV-I 6,6 C 14,3 C 14,6 km/h (3 Bft)
08.04.2011 20:35 14,7 C 13,6 C 14,3 C 14,6 C 14,1 C 0,0 C 59 % 60 % 0 % 1015,3 hPa 0,0 l/m 10,6 km/h (2 Bft) S 180 0 min 0,0 UV-I 6,8 C 14,1 C 14,6 km/h (3 Bft)
08.04.2011 20:40 14,7 C 13,6 C 14,3 C 14,5 C 13,9 C 0,0 C 59 % 60 % 0 % 1015,3 hPa 0,0 l/m 11,7 km/h (2 Bft) W-SW 247 0 min 0,0 UV-I 6,8 C 13,9 C 11,6 km/h (2 Bft)
08.04.2011 20:45 14,6 C 13,6 C 14,3 C 14,4 C 13,8 C 0,0 C 59 % 60 % 0 % 1015,3 hPa 0,0 l/m 12,9 km/h (3 Bft) W 270 0 min 0,0 UV-I 6,7 C 13,8 C 17,7 km/h (3 Bft)
08.04.2011 20:50 14,7 C 13,6 C 14,3 C 14,5 C 13,6 C 0,0 C 59 % 60 % 0 % 1015,3 hPa 0,0 l/m 14,5 km/h (3 Bft) SW 225 0 min 0,0 UV-I 6,8 C 13,6 C 26,4 km/h (4 Bft)
08.04.2011 20:55 14,6 C 13,6 C 14,3 C 14,3 C 13,4 C 0,0 C 59 % 61 % 0 % 1015,5 hPa 0,0 l/m 15,9 km/h (3 Bft) W-SW 247 0 min 0,0 UV-I 6,7 C 13,4 C 18,5 km/h (3 Bft)
08.04.2011 21:00 14,5 C 13,6 C 14,3 C 14,1 C 13,4 C 0,0 C 59 % 61 % 0 % 1015,5 hPa 0,0 l/m 15,1 km/h (3 Bft) W 270 0 min 0,0 UV-I 6,6 C 13,4 C 14,3 km/h (3 Bft)
08.04.2011 21:10 14,4 C 13,6 C 14,1 C 14,2 C 13,6 C 0,0 C 60 % 62 % 0 % 1015,5 hPa 0,0 l/m 13,5 km/h (3 Bft) N 0 0 min 0,0 UV-I 6,7 C 13,6 C 18,3 km/h (3 Bft)
08.04.2011 21:15 14,4 C 13,6 C 14,1 C 14,2 C 13,5 C 0,0 C 61 % 62 % 0 % 1015,4 hPa 0,0 l/m 13,2 km/h (3 Bft) S-SW 202 0 min 0,0 UV-I 7,0 C 13,5 C 9,2 km/h (2 Bft)
08.04.2011 21:20 14,4 C 13,6 C 14,0 C 14,2 C 13,3 C 0,0 C 61 % 62 % 0 % 1015,4 hPa 0,0 l/m 13,4 km/h (3 Bft) S 180 0 min 0,0 UV-I 7,0 C 13,3 C 15,4 km/h (3 Bft)
08.04.2011 21:25 14,4 C 13,6 C 14,0 C 14,0 C 13,3 C 0,0 C 61 % 63 % 0 % 1015,4 hPa 0,0 l/m 13,7 km/h (3 Bft) W-SW 247 0 min 0,0 UV-I 7,0 C 13,3 C 17,1 km/h (3 Bft)
08.04.2011 21:30 14,3 C 13,6 C 14,0 C 14,0 C 13,3 C 0,0 C 61 % 63 % 0 % 1015,4 hPa 0,0 l/m 13,5 km/h (3 Bft) S-SW 202 0 min 0,0 UV-I 6,9 C 13,3 C 13,5 km/h (3 Bft)
08.04.2011 21:35 14,3 C 13,6 C 14,0 C 14,0 C 13,3 C 0,0 C 61 % 62 % 0 % 1015,9 hPa 0,0 l/m 13,8 km/h (3 Bft) SW 225 0 min 0,0 UV-I 6,9 C 13,3 C 13,5 km/h (3 Bft)
08.04.2011 21:40 14,3 C 13,6 C 14,0 C 14,0 C 13,3 C 0,0 C 61 % 63 % 0 % 1015,9 hPa 0,0 l/m 13,7 km/h (3 Bft) W-SW 247 0 min 0,0 UV-I 6,9 C 13,3 C 25,1 km/h (4 Bft)
08.04.2011 21:45 14,3 C 13,6 C 14,0 C 14,0 C 13,3 C 0,0 C 62 % 63 % 0 % 1015,9 hPa 0,0 l/m 14,3 km/h (3 Bft) SW 225 0 min 0,0 UV-I 7,1 C 13,3 C 16,1 km/h (3 Bft)
08.04.2011 21:50 14,3 C 13,6 C 14,0 C 14,1 C 13,2 C 0,0 C 62 % 63 % 0 % 1015,9 hPa 0,0 l/m 15,0 km/h (3 Bft) SW 225 0 min 0,0 UV-I 7,1 C 13,2 C 16,9 km/h (3 Bft)
08.04.2011 21:55 14,3 C 13,6 C 14,0 C 14,1 C 13,4 C 0,0 C 62 % 63 % 0 % 1015,7 hPa 0,0 l/m 12,6 km/h (3 Bft) S 180 0 min 0,0 UV-I 7,1 C 13,4 C 12,7 km/h (3 Bft)
08.04.2011 22:00 14,2 C 13,6 C 14,0 C 13,9 C 13,4 C 0,0 C 62 % 63 % 0 % 1015,7 hPa 0,0 l/m 12,2 km/h (2 Bft) S 180 0 min 0,0 UV-I 7,0 C 13,4 C 26,1 km/h (4 Bft)
08.04.2011 22:09 14,1 C 13,6 C 13,9 C 13,9 C 13,1 C 0,0 C 63 % 64 % 0 % 1015,7 hPa 0,0 l/m 13,5 km/h (3 Bft) N 0 0 min 0,0 UV-I 7,2 C 13,1 C 11,6 km/h (2 Bft)
08.04.2011 22:15 14,0 C 13,6 C 13,8 C 13,7 C 12,8 C 0,0 C 63 % 64 % 0 % 1015,4 hPa 0,0 l/m 12,7 km/h (3 Bft) S 180 0 min 0,0 UV-I 7,1 C 12,8 C 20,8 km/h (4 Bft)
08.04.2011 22:20 14,0 C 13,6 C 13,9 C 13,6 C 12,8 C 0,0 C 63 % 64 % 0 % 1015,4 hPa 0,0 l/m 12,6 km/h (3 Bft) S 180 0 min 0,0 UV-I 7,1 C 12,8 C 10,5 km/h (2 Bft)
08.04.2011 22:25 14,0 C 13,6 C 13,7 C 13,6 C 12,8 C 0,0 C 63 % 64 % 0 % 1015,4 hPa 0,0 l/m 12,4 km/h (3 Bft) S 180 0 min 0,0 UV-I 7,1 C 12,8 C 9,2 km/h (2 Bft)
08.04.2011 22:30 13,9 C 13,6 C 13,7 C 13,5 C 12,8 C 0,0 C 63 % 64 % 0 % 1015,4 hPa 0,0 l/m 11,7 km/h (2 Bft) SW 225 0 min 0,0 UV-I 7,0 C 12,8 C 11,7 km/h (2 Bft)
08.04.2011 22:35 13,8 C 13,6 C 13,5 C 13,5 C 12,7 C 0,0 C 64 % 65 % 0 % 1016,3 hPa 0,0 l/m 10,1 km/h (2 Bft) W-SW 247 0 min 0,0 UV-I 7,1 C 12,7 C 8,0 km/h (2 Bft)
08.04.2011 22:40 13,7 C 13,6 C 13,3 C 13,4 C 12,6 C 0,0 C 64 % 66 % 0 % 1016,3 hPa 0,0 l/m 9,5 km/h (2 Bft) O 90 0 min 0,0 UV-I 7,0 C 12,6 C 11,9 km/h (2 Bft)
08.04.2011 22:45 13,4 C 13,6 C 13,1 C 13,1 C 12,2 C 0,0 C 64 % 66 % 0 % 1016,3 hPa 0,0 l/m 9,2 km/h (2 Bft) S 180 0 min 0,0 UV-I 6,7 C 12,2 C 9,2 km/h (2 Bft)
08.04.2011 22:50 13,3 C 13,6 C 12,9 C 12,9 C 11,9 C 0,0 C 65 % 66 % 0 % 1016,3 hPa 0,0 l/m 8,2 km/h (2 Bft) S-SO 157 0 min 0,0 UV-I 6,9 C 11,9 C 10,9 km/h (2 Bft)
08.04.2011 22:55 13,3 C 13,6 C 12,7 C 12,8 C 11,6 C 0,0 C 64 % 66 % 0 % 1016,0 hPa 0,0 l/m 8,0 km/h (2 Bft) S 180 0 min 0,0 UV-I 6,6 C 11,6 C 6,1 km/h (2 Bft)
08.04.2011 23:00 13,1 C 13,6 C 12,6 C 12,6 C 11,3 C 0,0 C 65 % 66 % 0 % 1016,0 hPa 0,0 l/m 9,0 km/h (2 Bft) SW 225 0 min 0,0 UV-I 6,7 C 11,3 C 7,2 km/h (2 Bft)
08.04.2011 23:10 12,9 C 13,6 C 12,3 C 12,4 C 10,9 C 0,0 C 64 % 66 % 0 % 1016,0 hPa 0,0 l/m 9,3 km/h (2 Bft) N 0 0 min 0,0 UV-I 6,3 C 10,9 C 12,6 km/h (3 Bft)
08.04.2011 23:15 12,7 C 13,6 C 12,1 C 12,2 C 10,7 C 0,0 C 63 % 65 % 0 % 1016,2 hPa 0,0 l/m 9,3 km/h (2 Bft) W 270 0 min 0,0 UV-I 5,8 C 10,7 C 11,7 km/h (2 Bft)
08.04.2011 23:20 12,6 C 13,6 C 12,0 C 12,0 C 10,6 C 0,0 C 63 % 65 % 0 % 1016,2 hPa 0,0 l/m 8,5 km/h (2 Bft) S 180 0 min 0,0 UV-I 5,7 C 10,6 C 10,3 km/h (2 Bft)
08.04.2011 23:25 12,4 C 13,7 C 11,8 C 11,8 C 10,4 C 0,0 C 63 % 65 % 0 % 1016,2 hPa 0,0 l/m 8,4 km/h (2 Bft) W-SW 247 0 min 0,0 UV-I 5,6 C 10,4 C 8,4 km/h (2 Bft)
08.04.2011 23:30 12,4 C 13,7 C 11,7 C 11,8 C 10,5 C 0,0 C 63 % 65 % 0 % 1016,2 hPa 0,0 l/m 7,6 km/h (2 Bft) SW 225 0 min 0,0 UV-I 5,6 C 10,5 C 6,1 km/h (2 Bft)
08.04.2011 23:35 12,3 C 13,7 C 11,5 C 11,8 C 10,8 C 0,0 C 63 % 65 % 0 % 1016,4 hPa 0,0 l/m 4,8 km/h (1 Bft) W-SW 247 0 min 0,0 UV-I 5,5 C 10,8 C 10,8 km/h (2 Bft)
08.04.2011 23:40 12,1 C 13,7 C 11,5 C 11,6 C 10,6 C 0,0 C 63 % 65 % 0 % 1016,4 hPa 0,0 l/m 5,0 km/h (1 Bft) W-NW 292 0 min 0,0 UV-I 5,3 C 10,6 C 8,7 km/h (2 Bft)
08.04.2011 23:45 12,0 C 13,7 C 11,4 C 11,4 C 10,3 C 0,0 C 62 % 64 % 0 % 1016,4 hPa 0,0 l/m 5,3 km/h (1 Bft) NW 315 0 min 0,0 UV-I 4,9 C 10,3 C 11,1 km/h (2 Bft)
08.04.2011 23:50 12,0 C 13,7 C 11,5 C 11,4 C 10,3 C 0,0 C 62 % 64 % 0 % 1016,4 hPa 0,0 l/m 6,1 km/h (2 Bft) W-SW 247 0 min 0,0 UV-I 4,9 C 10,3 C 9,8 km/h (2 Bft)
08.04.2011 23:55 12,0 C 13,7 C 11,4 C 11,4 C 10,2 C 0,0 C 62 % 65 % 0 % 1017,2 hPa 0,0 l/m 6,8 km/h (2 Bft) SW 225 0 min 0,0 UV-I 4,9 C 10,2 C 10,0 km/h (2 Bft)
_ Min-Zeit 05:25 10:15 05:30 05:20 05:20 00:00 16:35 15:09 00:00 18:55 - 01:10 - - - 00:00 02:20 04:50 00:50
Minimum _ 6,9 C 12,3 C 5,8 C 5,9 C 3,8 C 0,0 C 46 % 40 % 0 % 1014,0 hPa - 1,8 km/h (1 Bft) - - - 0,0 UV-I 1,6 C 2,1 C 1,9 km/h (1 Bft)
_ Max-Zeit 17:50 00:00 15:00 16:55 16:55 15:09 04:40 04:35 15:09 04:15 00:00 17:40 - - 00:00 13:55 18:20 16:55 17:55
Maximum _ 16,8 C 14,8 C 19,1 C 18,4 C 18,5 C 2,7 C 72 % 77 % 71 % 1022,3 hPa 0,0 l/m 22,9 km/h
SW (4 Bft)
- - 0 min 2,6 UV-I 7,2 C 18,5 C 42,2 km/h
S-SW (6 Bft)
Durchschnitt _ 11,4 C 13,2 C 11,1 C 11,3 C 10,2 C 0,3 C 60 % 62 % 9 % 1019,1 hPa #0,0 l/m 11,0 km/h (2 Bft) SW - #0 min. 0,9 UV-I 3,8 C 9,4 C 13,9 km/h (3 Bft)
2013 www.wetterstation-wechselburg.de